Regional Weather Roundup
Issued by NWS Northern Indiana

Home | Current Version | Previous Version | Graphics & Text | Print | Product List | Glossary On
Versions: 1 2 3 4 5 6 7 8 9 10 11 12 13 14 15 16 17 18 19 20 21 22 23 24 25 26 27 28 29 30 31 32 33 34 35 36 37 38 39 40 41 42 43 44 45 46 47 48 49 50
000
ASUS43 KIWX 210600
RWRIWX

KIWX WEATHER ROUNDUP
NATIONAL WEATHER SERVICE NORTHERN INDIANA
100 AM EST TUE NOV 21 2017

NOTE: "FAIR" INDICATES FEW OR NO CLOUDS BELOW 12,000 FEET WITH NO
SIGNIFICANT WEATHER AND/OR OBSTRUCTIONS TO VISIBILITY.

* THESE STATIONS ARE NOT UNDER NWS QUALITY CONTROL. THEY ALSO MAY NOT
  REPORT WEATHER SUCH AS PRECIPITATION OR FOG.

INZ001>027-210700-
NORTHERN INDIANA

CITY           SKY/WX    TMP DP  RH WIND       PRES   REMARKS
MICHIGAN CITY* PTCLDY    41  28  60 S18G25    29.74F
KNOX*          PTCLDY    41  28  60 S22       29.78F
SOUTH BEND     CLOUDY    42  27  55 SW20G30   29.77F
6HR MIN TEMP:  41; 6HR MAX TEMP:  45;

GOSHEN         CLEAR     41  23  48 SW18G29   29.78F
6HR MIN TEMP:  40; 6HR MAX TEMP:  44;

MONTICELLO*    CLOUDY    40  25  54 S17G24    29.83F
6HR MIN TEMP:  40; 6HR MAX TEMP:  44;

FORT WAYNE     PTCLDY    40  27  59 SW16      29.85F
6HR MIN TEMP:  39; 6HR MAX TEMP:  42;

PERU/GRISSOM   CLEAR     39  26  60 SW16      29.84F
6HR MIN TEMP:  39; 6HR MAX TEMP:  42;


$$
INZ028>050-210700-
CENTRAL INDIANA

CITY           SKY/WX    TMP DP  RH WIND       PRES   REMARKS
LAFAYETTE      CLOUDY    42  26  53 SW13G18   29.86F
6HR MIN TEMP:  40; 6HR MAX TEMP:  43;

KOKOMO*        CLEAR     39  25  57 S17G23    29.87F
6HR MIN TEMP:  38; 6HR MAX TEMP:  42;

MUNCIE*        CLEAR     42  24  49 SW12G23   29.90R
6HR MIN TEMP:  41; 6HR MAX TEMP:  44;

INDIANAPOLIS   CLEAR     38  23  55 S10       29.92F
6HR MIN TEMP:  38; 6HR MAX TEMP:  44;


$$
MIZ043>046-050>051-056>058-064>065-071>073-077>080-210700-
SOUTHWEST LOWER MICHIGAN

CITY           SKY/WX    TMP DP  RH WIND       PRES   REMARKS
BATTLE CREEK   PTCLDY    41  26  55 SW21G35   29.73F
6HR MIN TEMP:  40; 6HR MAX TEMP:  45;

BENTON HARBOR  CLOUDY    43  27  53 S15G23    29.71F
6HR MIN TEMP:  43; 6HR MAX TEMP:  48;

COLDWATER*     CLEAR     40  23  50 SW15G24   29.77F
6HR MIN TEMP:  40; 6HR MAX TEMP:  43;

HILLSDALE*     CLEAR     37  23  56 SW15G23   29.77F
HOLLAND        CLOUDY    45  31  58 SW24G37   29.68F
6HR MIN TEMP:  45; 6HR MAX TEMP:  48;

GRAND RAPIDS   CLOUDY    43  29  57 SW20G26   29.67F
6HR MIN TEMP:  43; 6HR MAX TEMP:  48;

KALAMAZOO      PTCLDY    41  24  51 S18G25    29.73F
6HR MIN TEMP:  41; 6HR MAX TEMP:  45;

STURGIS*       CLEAR     37  26  65 SW15      29.77F
6HR MIN TEMP:  37; 6HR MAX TEMP:  43;

THREE RIVERS*  FAIR      41  26  53 SW17G23   29.76F
6HR MIN TEMP:  41; 6HR MAX TEMP:  45;


$$
OHZ001>008-015>018-024>025-210700-
NORTHWEST OHIO

CITY           SKY/WX    TMP DP  RH WIND       PRES   REMARKS
DEFIANCE       CLEAR     36  25  64 S13       29.85F
6HR MIN TEMP:  36; 6HR MAX TEMP:  42;

FINDLAY        CLEAR     39  25  57 S14       29.88S
6HR MIN TEMP:  39; 6HR MAX TEMP:  41;

TOLEDO EXPRESS CLEAR     41  26  55 SW14G29   29.84F
6HR MIN TEMP:  40; 6HR MAX TEMP:  43;

TOLEDO METCALF CLEAR     39  26  59 S14       29.86F
6HR MIN TEMP:  38; 6HR MAX TEMP:  42;

LIMA           CLEAR     40  25  55 S14       29.88S
6HR MIN TEMP:  38; 6HR MAX TEMP:  41;


$$
AND FOR LAKE MICHIGAN COASTAL AND OPEN LAKE BUOY OBSERVATIONS

STATION/POSITION TEMP    WIND        PRES    VSBY  WAVE
                 AIR SEA DIR/SP/G                  HT/PER
                 (F)     (DEG/KT/KT) (MB)    (MI)  (FT/S)
CALUMET HARBOR    45     200/ 18/ 24 1005.6F
MICHIGAN CITY     44     180/ 20/ 26   N/A
BURNS HARBOR      45     200/ 25/ 32 1007.1F
SAINT JOSEPH      45     200/ 15/ 25 1007.1
SOUTH LAKE BUOY   47 48  220/ 29/ 37 1003.7          9/ 7

$$
&&




USA.gov is the U.S. government's official web portal to all federal, state and local government web resources and services.